Location: Podia
(1.5569°N, 32.3469°E)
Time: 00:46:49
(UTC+00:00)

MINOTAUR IV R/B - Pass Details

Date: 01 June 2020
Orbit: 618 x 646 km, 72.0° (Epoch: 01 July)

Event Time Altitude Azimuth Distance (km) Brightness Sun altitude
Rises 17:23:04 0° 346° (NNW) 2,933 8.6 -21.1°
Reaches altitude 10° 17:25:20 10° 346° (NNW) 2,024 7.7 -21.7°
Maximum altitude 17:29:54 87° 72° (ENE) 641 4.5 -22.7°
Enters shadow 17:30:37 63° 160° (SSE) 708 4.6 -22.8°
